www.pogodaiklimat.ru

Погода и климат >> Архив погоды >> Норвегия >> Рейпа


ПОГОДА в Рейпе

  • Прогноз погоды в Рейпе
  • Монитор погоды в Рейпе

АРХИВ ПОГОДЫ в Рейпе

Время (UTC), дата Ветер
(напр.,м/с)
 
Видим.   Явления Облачность Т
(С)
Тd
(С)
f
(%)
Тe
(С)
Тes
(С)
Комфортность P
(гПа)
Po
(гПа)
Тmin
(С)
Tmax
(С)
R
(мм)
R24
(мм)
S
(см)
10 16.09 З 2
{2}
н/о н/о +11.7 +7.2 74 +11 +11 997.7 996.7
11 16.09 Ю 1
{3}
н/о н/о +13.0 +6.1 63 +13 +13 997.9 996.9
12 16.09 С 2
{4}
>70 км 8/3 1500 м
[Sc diur, vesp Ac cuf Ci sp]
+12.0 +5.0 62 +11 +13 998.2 997.2
13 16.09 С 3
{5}
н/о н/о +12.6 +4.6 58 +11 +11 998.3 997.3
14 16.09 С 2
{6}
н/о н/о +11.9 +5.3 64 +11 +11 998.3 997.3
15 16.09 СВ 2
{5}
н/о н/о +10.9 +5.0 67 +10 +10 998.3 997.3
16 16.09 штиль 0
{4}
н/о н/о +10.4 +5.6 72 +10 +10 998.2 997.2
17 16.09 штиль 0
{1}
н/о н/о +9.5 +6.4 81 +9 +9 998.2 997.2
18 16.09 СВ 2
{6}
>70 км 8/5 1500 м
[Sc diur, vesp Ac trans Ci sp]
+6.6 +5.7 94 +4 +4 998.2 997.2 +4.4 +13.3
19 16.09 СВ 1
{3}
н/о н/о +5.8 +5.4 97 +4 +4 998.1 997.1
20 16.09 СВ 1
{3}
н/о н/о +5.8 +5.5 98 +4 +4 998.2 997.2
21 16.09 СВ 1
{2}
н/о н/о +5.6 +5.6 100 +4 +4 998.2 997.2
22 16.09 В 1
{3}
н/о н/о +5.2 +5.2 100 +4 +4 998.1 997.1
23 16.09 СВ 2
{3}
н/о н/о +5.2 +5.2 100 +2 +2 998.2 997.2
00 17.09 СВ 2
{3}
н/о н/о +5.4 +5.4 100 +3 +3 998.3 997.3
01 17.09 В 1
{3}
н/о н/о +3.4 +3.3 99 +2 +2 998.4 997.4
02 17.09 В 1
{3}
н/о н/о +3.1 +3.0 99 +1 +1 998.6 997.6
03 17.09 ЮВ 1
{3}
н/о н/о +2.8 +2.8 100 +1 +1 998.9 997.9
04 17.09 СВ 1
{2}
н/о н/о +2.6 +2.6 100 +1 +1 999.2 998.2
05 17.09 В 2
{4}
н/о н/о +3.4 +3.4 100 0 0 999.5 998.5
06 17.09 В 1
{4}
>70 км 5/1 1500 м
[Sc Ac trans Ci sp]
+5.0 +5.0 100 +3 +4 1000.1 999.1 +2.4 +6.7
07 17.09 В 1
{2}
н/о н/о +5.3 +5.3 100 +4 +4 1000.5 999.5
08 17.09 В 1
{2}
н/о н/о +5.8 +4.8 93 +5 +5 1001.2 1000.2
09 17.09 Ю 1
{2}
н/о н/о +9.8 +6.9 82 +9 +9 1001.8 1000.8
10 17.09 Ю 2
{2}
н/о н/о +11.5 +7.0 74 +10 +10 1002.3 1001.3
11 17.09 СЗ 3
{5}
н/о н/о +12.0 +4.5 60 +11 +11 1002.8 1001.8
12 17.09 СЗ 3
{6}
>70 км 4/1 1500 м
[Cu med, cong Ac trans Ci sp]
+12.3 +5.0 61 +11 +13 1003.4 1002.4
13 17.09 СЗ 4
{6}
н/о н/о +11.5 +5.2 65 +9 +9 1003.8 1002.8
14 17.09 СЗ 4
{6}
н/о н/о +11.9 +5.8 66 +10 +10 1004.1 1003.1
15 17.09 СЗ 2
{7}
н/о н/о +11.6 +6.3 70 +11 +11 1004.7 1003.7
16 17.09 СЗ 1
{4}
н/о н/о +11.5 +6.4 71 +11 +11 1005.0 1004.0
17 17.09 С 1
{3}
н/о н/о +8.7 +5.3 79 +8 +8 1005.3 1004.3
18 17.09 В 2
{7}
>70 км 3/1 1500 м
[Cu med, cong Ac trans Ci sp]
+5.4 +4.4 93 +3 +3 1005.7 1004.7 +4.8 +12.8
19 17.09 В 3
{3}
н/о н/о +4.9 +4.9 100 +1 +1 1006.0 1005.0
20 17.09 СВ 1
{3}
н/о н/о +4.1 +4.1 100 +2 +2 1006.5 1005.5
21 17.09 В 1
{3}
н/о н/о +4.2 +4.2 100 +3 +3 1006.8 1005.8
22 17.09 СВ 2
{2}
н/о н/о +4.5 +4.5 100 +2 +2 1007.1 1006.1
23 17.09 СВ 2
{3}
н/о н/о +4.2 +4.2 100 +1 +1 1007.3 1006.3
00 18.09 СВ 1
{3}
н/о н/о +4.7 +4.7 100 +3 +3 1007.5 1006.5
01 18.09 СВ 1
{3}
н/о н/о +4.5 +4.5 100 +3 +3 1007.5 1006.5
02 18.09 СВ 1
{3}
н/о н/о +5.6 +5.6 100 +4 +4 1008.0 1007.0 0.1
03 18.09 В 3
{4}
н/о н/о +6.3 +6.0 98 +3 +3 1008.4 1007.4 4
04 18.09 В 2
{5}
н/о н/о +6.6 +6.0 96 +4 +4 1008.7 1007.7 0.1
05 18.09 СВ 2
{3}
н/о н/о +6.1 +6.1 100 +3 +3 1009.1 1008.1 0.1
06 18.09 ЮЗ 2
{5}
25 км слаб. дождь {морось} 10/9 300 м
[Sc Ac cuf]
+6.7 +6.7 100 +4 +4 1009.6 1008.6 +3.6 +6.7 0.7
07 18.09 С 3
{6}
н/о н/о +8.4 +5.5 82 +6 +6 1010.0 1009.0
08 18.09 С 4
{8}
н/о н/о +9.1 +4.5 73 +6 +6 1010.8 1009.8
09 18.09 С 2
{7}
н/о н/о +10.1 +4.1 66 +9 +9 1011.5 1010.5
10 18.09 С 3
{8}
н/о н/о +10.0 +4.8 70 +8 +8 1012.1 1011.1 0.1
11 18.09 С 3
{7}
н/о н/о +9.4 +3.8 68 +7 +7 1012.6 1011.6 0.5
12 18.09 С 3
{9}
25 км слаб. ливневой дождь 9/8 600 м
[Cb calv Ac cuf]
+9.8 +3.6 65 +8 +8 1013.2 1012.2
13 18.09 СВ 4
{8}
н/о н/о +10.0 +2.6 60 +8 +8 1013.6 1012.6
14 18.09 С 3
{7}
н/о н/о +9.2 +2.1 61 +7 +7 1014.3 1013.3
15 18.09 С 4
{8}
н/о н/о +9.1 +1.8 60 +6 +6 1014.7 1013.7
16 18.09 С 4
{9}
н/о н/о +8.0 +2.3 67 +5 +5 1015.2 1014.2
17 18.09 С 4
{9}
н/о н/о +7.8 +2.3 68 +5 +5 1015.4 1014.4 0.5
18 18.09 С 5
{10}
25 км слаб. ливневой дождь 9/9 600 м
[Cu med, cong Ac cuf Ci sp]
+7.8 +2.7 70 +4 +4 1015.9 1014.9 +6.7 +10.9
19 18.09 С 5
{9}
н/о н/о +7.7 +2.0 67 +4 +4 1016.3 1015.3 0.1
20 18.09 С 5
{11}
н/о н/о +7.5 +1.4 65 +4 +4 1016.9 1015.9
21 18.09
{11}
н/о н/о +7.3 +0.8 63 1017.4 1016.4
22 18.09 С 4
{10}
н/о н/о +7.1 +0.3 62 +4 +4 1017.9 1016.9 0.1
23 18.09 С 4
{9}
н/о н/о +6.7 0.0 62 +3 +3 1018.5 1017.4
00 19.09 С 3
{11}
н/о н/о +7.1 -0.3 59 +5 +5 1018.7 1017.7
01 19.09 С 2
{7}
н/о н/о +5.7 -0.8 63 +4 +4 1019.1 1018.0
02 19.09 ЮЗ 1
{4}
н/о н/о +5.2 0.0 69 +4 +4 1019.2 1018.1
03 19.09 З 6
{11}
н/о н/о +4.3 +2.3 87 -1 -1 1019.7 1018.6 1
04 19.09 В 3
{5}
н/о н/о +3.4 +2.8 96 -1 -1 1019.4 1018.3 0.1
05 19.09 В 2
{5}
н/о н/о +3.2 +2.9 98 -0 -0 1019.3 1018.2 0.5
06 19.09 СВ 1
{11}
25 км слаб. ливневой дождь 5/4 600 м
[Cb calv Ac cuf Ci sp]
+4.1 +2.6 90 +3 +3 1019.3 1018.2 +3.1 +7.8 0.1
07 19.09 ЮЗ 2
{4}
н/о н/о +5.5 +3.5 87 +3 +3 1019.4 1018.3
08 19.09 ЮВ 1
{4}
н/о н/о +6.7 +3.2 78 +6 +6 1019.5 1018.4
09 19.09 З 4
{8}
н/о н/о +6.8 +3.3 78 +3 +3 1020.0 1018.9 0.2
10 19.09 В 3
{8}
н/о н/о +6.7 +4.9 88 +4 +4 1020.1 1019.0 0.7
11 19.09 ЮЗ 4
{7}
н/о н/о +7.3 +4.6 83 +4 +4 1019.9 1018.9 0.2
12 19.09 З 2
{13}
25 км ливневой дождь 8/6 600 м
[Cu Sc Ac cuf Ci sp]
+7.4 +2.9 73 +5 +6 1020.3 1019.3 3
13 19.09 СЗ 4
{10}
н/о н/о +6.0 +2.7 79 +2 +2 1020.7 1019.6 0.3
14 19.09 З 7
{10}
н/о н/о +6.2 +3.9 85 +1 +1 1020.4 1019.3
15 19.09 С 1
{8}
н/о н/о +5.4 +4.1 91 +4 +4 1020.0 1018.9 1
16 19.09 В 3
{4}
н/о н/о +5.3 +4.6 95 +2 +2 1019.6 1018.5 0.3
17 19.09 С 2
{3}
н/о н/о +4.7 +4.3 97 +2 +2 1019.3 1018.2 0.3
18 19.09 В 3
{10}
10 км слаб. ливневой дождь 8/6 600 м
[Cu Sc Ac cuf Ci sp]
+4.1 +4.0 99 0 0 1019.3 1018.2 +4.0 +8.5
19 19.09 В 1
{4}
н/о н/о +3.7 +2.7 93 +2 +2 1019.2 1018.1 0.1
20 19.09 С 3
{5}
н/о н/о +4.1 +3.7 97 0 0 1018.8 1017.7
21 19.09 В 3
{4}
н/о н/о +3.2 +3.1 99 -1 -1 1018.5 1017.4
22 19.09 В 2
{4}
н/о н/о +2.9 +2.9 100 -1 -1 1018.3 1017.2 0.1
23 19.09 СВ 3
{4}
н/о н/о +2.6 +2.6 100 -2 -2 1017.7 1016.6
00 20.09 СВ 3
{5}
н/о н/о +3.0 +3.0 100 -1 -1 1017.4 1016.3
01 20.09 СВ 2
{4}
н/о н/о +2.2 +1.9 98 -1 -1 1016.9 1015.8
02 20.09 СВ 2
{4}
н/о н/о +2.4 +2.4 100 -1 -1 1016.1 1015.0
03 20.09 СВ 2
{4}
н/о н/о +2.3 +2.0 98 -1 -1 1015.4 1014.3
04 20.09 СВ 1
{3}
н/о н/о +2.7 +2.7 100 +1 +1 1014.8 1013.7
05 20.09 В 1
{3}
н/о н/о +2.9 +2.9 100 +1 +1 1013.9 1012.8
06 20.09 СВ 2
{4}
>70 км 10/0 2000 м
[As trans]
+3.2 +3.2 100 -0 0 1013.2 1012.1 +1.4 +4.6
07 20.09 СВ 2
{3}
н/о н/о +4.6 +4.6 100 +2 +2 1012.8 1011.7
08 20.09 В 1
{2}
н/о н/о +5.5 +4.8 95 +4 +4 1012.0 1011.0
09 20.09 СЗ 1
{1}
н/о н/о +6.6 +4.6 87 +6 +6 1012.0 1011.0 0.1
10 20.09 СВ 2
{3}
н/о н/о +6.9 +5.2 89 +5 +5 1011.9 1010.9
11 20.09 В 2
{3}
н/о н/о +7.6 +1.7 66 +6 +6 1011.3 1010.3
12 20.09 СВ 1
{4}
>70 км 10/0 2000 м
[As trans]
+8.1 +2.4 67 +8 +9 1010.6 1009.6
13 20.09 Ю 1
{2}
н/о н/о +8.3 +1.9 64 +8 +8 1009.9 1008.9
14 20.09 СЗ 1
{2}
н/о н/о +8.5 +2.3 65 +8 +8 1009.4 1008.4
15 20.09 З 1
{2}
н/о н/о +8.1 +3.0 70 +8 +8 1009.0 1008.0
16 20.09 СВ 1
{2}
н/о н/о +7.5 +4.8 83 +7 +7 1008.6 1007.6
17 20.09 В 2
{2}
н/о н/о +6.1 +4.1 87 +4 +4 1008.6 1007.6
18 20.09 В 3
{3}
>70 км 9/0 2000 м
[Ac trans Ci sp]
+5.7 +3.5 86 +2 +2 1008.5 1007.5 +3.2 +8.7
19 20.09 СВ 2
{3}
н/о н/о +5.6 +4.6 93 +3 +3 1008.4 1007.4
20 20.09 СВ 3
{3}
н/о н/о +4.9 +4.3 96 +1 +1 1008.7 1007.7
21 20.09 СВ 2
{3}
н/о н/о +4.9 +4.2 95 +2 +2 1008.8 1007.8
22 20.09 СВ 2
{3}
н/о н/о +4.5 +3.8 95 +2 +2 1008.9 1007.9
23 20.09 В 1
{3}
н/о н/о +4.0 +3.3 95 +2 +2 1009.0 1007.9
00 21.09 СВ 2
{4}
н/о н/о +4.8 +3.2 89 +2 +2 1009.5 1008.5
01 21.09 СВ 3
{4}
н/о н/о +3.8 +3.2 96 -0 -0 1010.0 1008.9
02 21.09 СВ 3
{5}
н/о н/о +3.4 +2.5 94 -1 -1 1010.3 1009.2
03 21.09 СВ 3
{5}
н/о н/о +2.8 +2.2 96 -1 -1 1010.9 1009.8
04 21.09 В 2
{5}
н/о н/о +3.2 +2.8 97 0 0 1011.3 1010.2
05 21.09 С 2
{3}
н/о н/о +3.0 +2.4 96 -0 -0 1011.8 1010.7
06 21.09 В 1
{5}
>70 км 10/9 1500 м
[Sc As trans]
+4.2 +3.8 97 +3 +3 1012.2 1011.1 +2.4 +5.7 0.1
07 21.09 СВ 2
{3}
н/о н/о +5.6 +5.2 97 +3 +3 1012.5 1011.5 0.1
08 21.09 СВ 1
{2}
н/о н/о +6.7 +5.3 91 +6 +6 1013.2 1012.2 0.1
09 21.09 С 3
{5}
н/о н/о +7.8 +3.3 73 +5 +5 1013.6 1012.6
10 21.09 В 2
{5}
н/о н/о +8.3 +3.8 73 +7 +7 1014.2 1013.2
11 21.09
{6}
н/о н/о +7.5 +3.2 74 1014.8 1013.8
12 21.09 СВ 2
{7}
>70 км 10/5 1500 м
[Sc As trans]
+8.2 +2.5 67 +7 +7 1015.3 1014.3
13 21.09 СВ 2
{5}
н/о н/о +8.6 +2.0 63 +7 +7 1015.6 1014.6
14 21.09 СВ 2
{6}
н/о н/о +8.3 +2.1 65 +7 +7 1015.8 1014.8
15 21.09 СВ 2
{8}
н/о н/о +6.6 +4.3 85 +4 +4 1016.1 1015.1 0.4
16 21.09 ЮВ 1
{4}
н/о н/о +6.0 +3.7 85 +5 +5 1016.6 1015.5 0.4
17 21.09 СВ 2
{3}
н/о н/о +5.0 +4.4 96 +2 +2 1016.8 1015.7
18 21.09 СВ 1
{8}
25 км осадки на расстоянии {морось} 10/5 1500 м
[Cb calv As trans]
+4.5 +4.1 97 +3 +3 1017.3 1016.2 +4.2 +9.3
19 21.09 В 3
{5}
н/о н/о +4.0 +3.1 94 0 0 1017.6 1016.5
20 21.09 СВ 2
{3}
н/о н/о +4.3 +3.3 93 +1 +1 1018.1 1017.0
21 21.09 СВ 2
{4}
н/о н/о +2.8 +1.9 94 -1 -1 1018.5 1017.4
22 21.09 СВ 2
{4}
н/о н/о +1.8 +1.7 99 -2 -2 1018.8 1017.7
23 21.09 В 2
{5}
н/о н/о +2.7 +2.1 96 -1 -1 1019.2 1018.1
00 22.09 В 3
{5}
н/о н/о +1.2 +1.1 99 -4 -4 1019.8 1018.7
01 22.09 В 3
{4}
н/о н/о +1.2 +1.1 99 -4 -4 1020.3 1019.2
02 22.09 СВ 3
{5}
н/о н/о +1.2 +0.9 98 -3 -3 1020.7 1019.6
03 22.09 СВ 3
{5}
н/о н/о +1.2 +0.2 93 -3 -3 1021.1 1020.0
04 22.09 СВ 3
{4}
н/о н/о +0.6 -0.5 92 -4 -4 1021.5 1020.4
05 22.09 СВ 3
{4}
н/о н/о +0.1 -1.0 92 -5 -5 1021.9 1020.8
06 22.09 СВ 4
{5}
>70 км ясно +1.8 -1.3 80 -3 -3 1022.4 1021.3 -0.1 +4.5
07 22.09 В 3
{5}
н/о н/о +3.1 -1.8 70 -1 -1 1022.8 1021.7
08 22.09 С 1
{4}
н/о н/о +3.1 -1.4 72 +2 +2 1023.1 1022.0
09 22.09 штиль 0
{4}
н/о н/о +4.2 -1.2 68 +4 +4 1023.3 1022.2
10 22.09 СВ 2
{5}
н/о н/о +7.8 -2.8 47 +6 +6 1023.5 1022.4
11 22.09 СВ 3
{6}
н/о н/о +8.7 -1.4 49 +7 +7 1023.3 1022.3
12 22.09 В 3
{6}
>70 км 1/0
[Ci sp]
+9.2 -1.5 47 +7 +10 1023.0 1022.0
13 22.09 СВ 3
{8}
н/о н/о +9.3 -2.0 45 +7 +7 1022.9 1021.9
14 22.09 С 2
{6}
н/о н/о +9.5 -1.8 45 +8 +8 1022.8 1021.8
15 22.09 С 2
{3}
н/о н/о +9.4 -1.9 45 +8 +8 1022.8 1021.8
16 22.09 С 2
{3}
н/о н/о +8.0 -0.7 54 +7 +7 1022.8 1021.7
17 22.09 СВ 3
{4}
н/о н/о +3.7 -1.2 70 0 0 1022.5 1021.4
18 22.09 СВ 3
{8}
>70 км ясно +0.7 -1.4 86 -4 -4 1022.7 1021.6 +0.7 +10.3
19 22.09 СВ 3
{5}
н/о н/о +0.4 -1.5 87 -4 -4 1022.9 1021.8
20 22.09 СВ 2
{4}
н/о н/о +0.5 -1.1 89 -3 -3 1022.8 1021.7
21 22.09 В 2
{4}
н/о н/о -0.1 -1.5 90 -4 -4 1022.8 1021.7
22 22.09 СВ 2
{3}
н/о н/о -0.1 -1.2 92 -4 -4 1022.6 1021.5
23 22.09 В 1
{4}
н/о н/о +0.2 -2.2 84 -2 -2 1022.3 1021.2
00 23.09 СВ 3
{5}
н/о н/о -0.4 -1.4 93 -5 -5 1022.2 1021.1
01 23.09 В 1
{4}
н/о н/о +0.9 -1.6 83 -1 -1 1022.3 1021.2
02 23.09 СВ 1
{3}
н/о н/о -0.6 -2.3 88 -3 -3 1022.2 1021.1
03 23.09 СВ 1
{3}
н/о н/о -0.7 -2.9 85 -3 -3 1021.8 1020.7
04 23.09 СВ 2
{3}
н/о н/о -1.6 -2.3 95 -6 -6 1021.7 1020.6
05 23.09 СВ 1
{4}
н/о н/о -0.5 -2.7 85 -3 -3 1021.8 1020.7
06 23.09 СВ 2
{4}
>70 км 1/0
[Ci sp]
-0.2 -1.3 92 -4 -4 1021.4 1020.3 -2.0 +1.8
07 23.09 В 3
{3}
н/о н/о +0.4 -2.6 80 -4 -4 1021.6 1020.5
08 23.09 СВ 3
{4}
н/о н/о +2.2 -1.7 75 -2 -2 1021.3 1020.2
09 23.09 штиль 0
{3}
н/о н/о +5.1 -1.5 62 +5 +5 1021.0 1019.9
10 23.09 ЮВ 1
{2}
н/о н/о +9.4 +0.1 52 +9 +9 1020.6 1019.6
11 23.09 ЮЗ 2
{4}
н/о н/о +11.3 +0.7 48 +11 +11 1020.3 1019.3

 

Местоположение метеостанции Рейпа (Норвегия): широта 66.90 долгота 13.65 высота над уровнем моря 9 м.

В архиве по умолчанию представлена погода в Рейпе за последнюю неделю. Архивные данные за месяц целиком и за предыдущие месяцы, начиная с января 2011 года, Вы можете получить, выбрав интересующий диапазон дат из раскрывающегося списка и нажав кнопку "Ввод!".


*Определитесь, кто Вы:
робот инопланетянин человек

Внимание! Время в таблицах - всемирное. Для получения местного времени необходимо прибавить поправку, которая равна 1 ч.

Смотрите также архив погоды в соседних городах и на ближайших метеорологических станциях:

Погода в Бодо (Норвегия) (51 км)
Погода на Мыкене (Норвегия) (53 км)
Погода в Хеллигвере (Норвегия) (57 км)
Погода в Аэропорту Mo i Rana (Норвегия) (67 км)
Погода в Сторфоршее (Норвегия) (68 км)
Погода в Хяртасене (Норвегия) (72 км)
Погода в Салтдале (Норвегия) (73 км)
Погода в Скамдале (Норвегия) (74 км)
Погода в Солвер III (Норвегия) (75 км)
Погода в Сетсе (Норвегия) (85 км)

Пояснения к столбцам:

Ветер - указаны скорость ветра в м/с - средняя за 10 мин, порывы в срок и между сроками (в фигурных скобках) и направление, откуда дует ветер: С - северный, СВ - северо-восточный, В - восточный, ЮВ - юго-восточный, Ю - южный, ЮЗ - юго-западный, З - западный, СЗ - северо-западный.
Видимость - горизонтальная дальность видимости в метрах или километрах. При видимости от 1 до 10 км при отсутствии осадков обычно наблюдается дымка, при ухудшении видимости до 1 км и менее - туман. В сухую погоду видимость может ухудшаться дымом, пылью или мглою.
Явления - указаны атмосферные явления, наблюдавшиеся в срок или в последний час перед сроком; фигурными скобками обозначены явления, наблюдавшиеся между сроками (за 1-3 часа до срока); квадратными скобками обозначены град или гололедные отложения с указанием их диаметра в мм.
Облачность - указаны через наклонную черту общая и нижняя облачность в баллах и высота нижней границы облаков в метрах; квадратными скобками обозначены формы облаков: Ci - перистые, Cs - перисто-слоистые, Cc - перисто-кучевые, Ac - высококучевые, As - высокослоистые, Sc - слоисто-кучевые, Ns - слоисто-дождевые, Cu - кучевые, Cb - кучево-дождевые. Подробнее классификацию облаков см. в Атласе облаков (PDF).
T - Температура воздуха - температура, измеренная на высоте 2 м над землей.
Td - Температура точки росы - температура, при понижении до которой содержащийся в воздухе водяной пар достигнет насыщения.
f - Относительная влажность воздуха - влажноcть воздуха, измеренная на высоте 2 м над землей.
Te - Эффективная температура - температура, которую ощущает одетый по сезону человек в тени. Характеристика душности погоды. При расчете учитывается влияние влажности воздуха и скорости ветра на теплоощущения человека.
Tes - Эффективная температура на солнце - температура, которую ощущает человек, с поправкой на солнечный нагрев. Характеристика знойности погоды. Зависит от высоты солнца над горизонтом, облачности и скорости ветра. Ночью, в пасмурную погоду, а также при ветре 12 м/с и более поправка равна нулю.
P - Атмосферное давление - приведенное к уровню моря атмосферное давление.
Po - Атмосферное давление - измеренное на уровне метеостанции атмосферное давление.
Tmin - Минимальная температура - минимум температуры воздуха на высоте 2 м над землей.
Tmax - Максимальная температура - максимум температуры воздуха на высоте 2 м над землей.
R - Количество осадков - Количество выпавших осадков за период времени, мм. При наведении курсора мыши на число - период времени, за который выпало указанное количество осадков.
R24 - Количество осадков - Количество выпавших осадков за 24 часа, мм.
S - Снежный покров - Высота снежного покрова, см. При наведении курсора мыши на число - состояние снежного покрова и степень покрытия местности в баллах.